Location: Bush Observatory
(40.2653°N, 94.3194°W)
Time: 09:30:49
(UTC-05:00)

Iridium 13 - Visible Passes

Search period start: 19 April 2014 00:00
Search period end: 29 April 2014 00:00
Orbit: 776 x 779 km, 86.4° (Epoch: 18 April)

Date Brightness Start Highest point End Pass type
(mag) Time Alt. Az. Time Alt. Az. Time Alt. Az.
19 Apr 7.6 05:55:28 10° NNE 06:00:08 32° E 06:04:46 10° SE visible
19 Apr 9.0 20:35:15 10° W 20:37:38 13° WNW 20:40:01 10° NW visible
20 Apr 8.5 05:22:50 10° NNE 05:26:21 18° ENE 05:29:51 10° ESE visible
22 Apr 6.8 05:55:19 10° N 06:00:20 47° E 06:05:20 10° SSE visible
23 Apr 8.0 05:22:19 10° NNE 05:26:38 26° ENE 05:30:55 10° SE visible
24 Apr 8.6 04:50:04 10° NE 04:52:48 14° ENE 04:55:31 10° ESE visible
25 Apr 6.0 05:55:17 10° N 06:00:30 69° E 06:05:40 10° S visible
26 Apr 7.2 05:22:03 10° NNE 05:26:52 37° E 05:31:39 10° SSE visible
27 Apr 8.2 04:49:16 10° NNE 04:53:07 20° ENE 04:56:56 10° SE visible
28 Apr 8.7 04:17:54 10° ENE 04:19:13 11° ENE 04:20:32 10° E visible
